鬼驱人Poltergeist(2015)

又名:凶灵入侵 / 鬼哭神嚎:恶灵15(台) / 吵闹鬼

主演:山姆·洛克威尔 Sam Rockwell/罗丝玛丽·德薇特 Rosemarie DeWitt/萨克斯·沙比诺 Saxon Sharbino/凯尔·凯特莱特 Kyle Catlett/肯尼迪·克莱蒙兹 Kennedi Clements/杰瑞德·哈里斯 Jared Harris/简·亚当斯 Jane Adams/Susan Heyward/尼可拉斯·博朗 Nicholas Braun/Karen Ivany/Patrick Garrow

导演:吉尔·克兰 / 编剧:大卫·林赛-阿贝尔 David Lindsay-Abaire/史蒂文·斯皮尔伯格 Steven Spielberg

上映日期:2015-05-22(美国)片长:93M

剧情介绍

鬼驱人主演:山姆·洛克威尔 Sam Rockwell/罗丝玛丽·德薇特 Rosemarie DeWitt/萨克斯·沙比诺 Saxon Sharbino/凯尔·凯特莱特 Kyle Catlett/肯尼迪·克莱蒙兹 Kennedi Clements/杰瑞德·哈里斯 Jared Harris/简·亚当斯 Jane Adams/Susan Heyward/尼可拉斯·博朗 Nicholas Braun/Karen Ivany/Patrick Garrow, 埃里克·鲍恩先生(山姆·洛克威尔 Sam Rockwell 饰)一家五口搬进一所乡间别墅,却赫然发现这所房子是个幽灵盘据的鬼屋。随着时间的推移,房子里可怕的幽灵也开始对他们展开一系列攻击,甚至俘虏他们的小女儿麦迪逊(肯尼迪·克莱蒙兹 Kennedi Clements 饰 ),让她完全消失在电视机中,女孩心急如焚的父母,最后只好求助于超自然现象专家布洛克·鲍威尔博士(简·亚当斯 Jane Adams 饰),想尽办法要找回心爱的女儿……
Legendary filmmaker Sam Raimi and director Gil Kenan reimagine and contemporize the classic tale about a family whose suburban home is invaded by angry spirits. When the terrifying apparitions escalate their attacks and take the youngest daughter, the family must come together to rescue her.

鬼驱人:最新迅雷BT下载资源

日期 资源名称
2022-08-05 poltergeist.2015.extended.2160p.web-dl.x265.10bit.hdr10
2020-04-05 poltergeist.2015.extended.cut.2160p.web.h265-petrified
2019-09-01 Poltergeist.2015.EXTENDED.PROPER.BRRip.XviD.MP3-XVID
2019-08-31 Poltergeist.2015.EXTENDED.PROPER.1080p.BluRay.H264.AAC-
2019-08-31 Poltergeist.2015.EXTENDED.PROPER.720p.BluRay.H264.AAC-R
2019-05-12 Poltergeist.2015.EXTENDED.BRRip.XviD.MP3-XVID
2019-05-12 Poltergeist 2015 EXTENDED 720p BluRay H264 AAC-RARBG
2019-05-12 Poltergeist 2015 EXTENDED 1080p BluRay H264 AAC-RARBG
2019-05-12 Poltergeist.2015.EXTENDED.BRRip.XviD.MP3-XVID
2019-05-12 Poltergeist.2015.EXTENDED.1080p.BluRay.H264.AAC-RARBG
2019-05-12 Poltergeist.2015.EXTENDED.720p.BluRay.H264.AAC-RARBG
2019-05-12 Poltergeist 2015 Extended 720p WEBRip x264 AC3-m2g
2019-05-12 Poltergeist.2015.EXTENDED.HDRip.XviD.AC3-EVO
2019-05-12 My_Crazy_Ex_S01_E06_WebRip_x264_AAC-iPv
2019-05-12 Poltergeist (2015) 720p HDSCREENER - 750MB - ShAaNiG
2019-05-12 Poltergeist.2015.Extended.Cut.BluRay.1080p.x264.HD.MA.7
2019-05-12 Poltergeist.2015.[DVD9-1-1]-NFORELEASE
2019-05-12 Poltergeist.2015.EXTENDED.BRRip.XviD.AC3-EVO
2019-05-12 Poltergeist 2015 EXTENDED BRRip XviD AC3-SANTi
2019-05-12 Poltergeist.2015.EXTENDED.1080p.BluRay.AC3.x264-ETRG
2019-05-12 Poltergeist 2015 EXTENDED 720p BluRay DTS x264 Worldwid
2019-05-12 Poltergeist 2015 EXTENDED 1080p BRRip x264 DTS-JYK
2019-05-12 Poltergeist 2015 EXTENDED BluRay 720p DTS x264-EPiC
2019-05-12 Poltergeist.2015.EXTENDED.1080p.BluRay.x264.anoXmous
2019-05-12 Poltergeist.2015.EXTENDED.BRRip.XviD.AC3-EVO
2019-05-12 Poltergeist.2015.EXTENDED.BDRip.x264-GECKOS
2019-05-12 Poltergeist (2015) EXTENDED - 1080p BluRay 6CH 1.7GB -
2019-05-12 Poltergeist 2015 720p BRRip x264 Extended MP4 Multisubs
2019-05-12 Poltergeist (2015) EXTENDED - 720p BluRay - 800MB - ShA
2019-05-12 Poltergeist.2015.EXTENDED.720p.BluRay.x264-GECKOS
2019-05-12 Poltergeist 2015 EXTENDED BDRip x264-GECKOS
2019-05-12 Poltergeist 2015 EXTENDED 720p BluRay x264-GECKOS
2019-05-12 Poltergeist 2015 EXTENDED WEBRip x264 AC3-GLY
2019-05-12 Poltergeist 2015 EXTENDED 1080p WEBRIP x264 AC3-EVE
2019-05-12 Poltergeist 2015 EXTENDED 1080p WEB-DL X264 AC3-EVO
2019-05-12 Poltergeist.2015.EXTENDED.HDRip.XviD-eXceSs
2019-05-12 Poltergeist.2015.EXTENDED.720p.WEB-DL.x264.AAC-ETRG
2019-05-12 Poltergeist 2015 EXTENDED 720p WEB-DL X264 AC3-EVO
2019-05-12 Poltergeist 2015 EXTENDED HDRip XviD AC3-EVO
2019-05-12 Poltergeist (2015) 720p HD-Rip x264 [Dual-Audio][Englis
2019-05-12 Poltergeist 2015 720p HDRip x264 Aac-deff
2019-05-12 Poltergeist 2015 1080p (MULTi SUBS) SCR H264 DD5 1-BLiT
2019-05-12 Poltergeist.2015.720p.HDTV.x264.AAC-ETRG
2019-05-12 Poltergeist.(2015).Spanish.Robmerc
2019-05-12 Poltergeist 2015 FanSub VOSTF WEBRIP x264 ToutatiX TPB
2019-05-12 Poltergeist 2015 SCREENER x264-RiPRG
2019-05-12 Poltergeist (2015) HD Screener 1080p x264 DD5.1 NL Subs
2019-05-12 Poltergeist.2015.720p.Yummy.Eng
2019-05-12 Poltergeist 2015 720p HDSCREENER x264
2019-05-12 Poltergeist (2015) 1080p HDSCREENER - 6CH - 1.5GB - ShA
2019-05-12 Poltergeist.2015.SCREENER.XviD.AC3-EVO
2019-05-12 Poltergeist.2015.TS.XVID-EVE
2019-05-12 Poltergeist.2015.TELESYNC.XViD.MrSeeN-SiMPLE
2019-05-12 Poltergeist.2015.CAM.XVID-EVE
2019-05-12 Poltergeist.O.Fenômeno.XviD.Dublado.SenhoreSTorre
2019-05-12 Poltergeist 2015.x264.DAZA2.mp4
2019-05-12 Poltergeist (2015) Screener (xvid) NL Subs. DMT
2019-05-12 Poltergeist.2015.EXTENDED.SweSub.WEB-DL.XviD-aZZo
2019-05-12 Poltergeist 2015 1080p HDRip x264 AC3-JYK
2019-05-12 Poltergeist.2015.EXTENDED.HDRip.XviD-ETRG
2019-05-11 Poltergeist [2in1 Teatrical & Extended Cut] 2015 Bl
2019-05-11 Poltergeist.2015.EXTENDED.BluRay.720p.x264
2019-05-11 Poltergeist.2015.720p.READNFO.RiP.AC3.x264-SiMPLE
2019-05-11 Poltergeist.2015.720p.READNFO.RiP.AC3.x264-SiMPLE
2019-05-11 Poltergeist 2015 Extended BluRay 720p DTS x264-ETRG
2019-05-11 Poltergeist.2015.1080p.SCREENER.X264.AC3-EVO
2019-05-11 Poltergeist.2015.720p.SCREENER.X264.AC3-EVO
2019-05-11 Poltergeist.2015.720p.SCREENER.X264.AC3-EVO
2019-05-11 Poltergeist.2015.1080p.SCREENER.X264.AC3-EVO
2019-05-11 Poltergeist 2015 Extended Cut Bluray 1080p DTS-HD-7.1 x
2019-05-11 Poltergeist.2015.SCREENER.1080p.x264.DD5.1-LTT
2019-05-11 Poltergeist [2015]
2019-05-11 Poltergeist.2015.3D.1080p.HOU.mkv
2019-05-11 American.Poltergeist.2015.DVDRip.720p.AC3.x264.MASTER.m
2019-05-11 Poltergeist.2015.EXTENDED.TRUEFRENCH.BDRip.XviD.AC3-GLU
2019-05-11 Poltergeist 2015.avi
2019-05-11 American.Poltergeist.2015.720p.BluRay.x264.DTS-RARBG
2019-05-11 American.Poltergeist.2015.1080p.BluRay.REMUX.AVC.DTS-HD
2019-05-11 American.Poltergeist.2015.1080p.BluRay.x264.DTS-HD.MA.5
2019-05-11 American.Poltergeist.2015.1080p.BluRay.x264.DTS-RARBG
2019-05-11 American.Poltergeist.2015.720p.BluRay.x264-STRATOS[rarb
2019-05-11 American.Poltergeist.2015.1080p.BluRay.x264-STRATOS[rar
2019-05-11 Poltergeist 2015 DVDRip XviD - roflcopter2110
2019-05-11 Poltergeist (2015) [1080p]
2019-05-11 Poltergeist (2015) [1080p] Extended VFF Dts Hdlight x26
2019-05-11 Poltergeist.2015.Extended.Cut.720p.Blu-ray.x264.DD5.1.R
2019-05-11 Poltergeist.2015.Extended.Cut.720p.BluRay.DTS.x264-DMN
2019-05-11 Poltergeist.2015.HQ.HDRip.XviD.AC3-ViP3R
2019-05-11 Poltergeist 2015
2019-05-11 [ultimate-torrent.com] Poltergeist.2015.TRUEFRENCH.EXTE
2019-05-11 Poltergeist.2015.EXTENDED.720p.x265-WAR
2019-05-11 [ www.CpasBien.pw ] Poltergeist.2015.TRUEFRENCH.HDRip.M
2019-05-11 Poltergeist(2015)3D-halfOU(Ash61).mkv
2019-05-11 Poltergeist.2015.EXTENDED.720p.WEB-DL.x264.AAC-ETRG
2019-05-11 Poltergeist(2015)(DualAudio).mkv
2019-05-11 Poltergeist.2015.3D.BDRip.1080p.Rus.Ukr.Eng.HalfOU.mkv
2019-05-11 Poltergeist 2015 EXTENDED BRRip XviD AC3-SANTi
2019-05-11 Poltergeist (2015) [1080p].mp4
2019-05-11 Poltergeist.2015.Extended.Cut.720p.BluRay.DD5.1.x264-CR
2019-05-11 [2015.10.08]鬼驱人[2015年美国惊悚恐怖(BD)](帝国出品)
2019-05-11 Poltergeist.2015.EXTENDED.SLOSUBS.PAL.DVDR-SiHQ
2019-05-11 Poltergeist.2015.PL.3D.HOU.1080p.miniHD.Leon345
2019-05-11 Poltergeist.2015.Extended.1080p.BluRay.DTS.Rus.Ukr.Eng.
2019-05-11 Poltergeist.2015.TC.3D.1080p.BluRay.Half-SBS.DTS-HD.MA.
2019-05-11 Poltergeist 2015 EXTENDED TrueFrench AC3 720p HDLight x
2019-05-11 Poltergeist (2015) Dual Audio [Hindi - English] 720p Bl
2019-05-11 Poltergeist(2015)3D-halfOU(Ash61)
2019-05-11 Poltergeist.2015.Extended.720p.BluRay.DTS.Rus.Ukr.Eng.H
2019-05-11 Poltergeist (2015) + Extras
2019-05-11 Poltergeist (2015) [Extended Cut] BDRip (Ukr, Rus, Eng)
2019-05-11 Poltergeist.2015.Extended.BDRip.720p.mkv
2019-05-11 Poltergeist(2015)3D-halfOU(Ash61rip)
2019-05-11 Poltergeist.2015.TC.3D.1080p.BluRay.Half-OU.DTS-HD.MA.7
2019-05-11 Poltergeist.2015..EXTENDED.D.BDRip.720p.mkv
2019-05-11 Poltergeist.2015.720p.SCREENER.X264.AC3-EVO
2019-05-11 Poltergeist.2015.EXTENDED.BluRay.720p.DTS.x264-EPiC
2019-05-11 鬼驱人.poltergeist.2015.HD720P.X264.AAC.中文字幕.mp4
2019-05-11 Poltergeist.2015.SCREENER.1080p.x264-POLTERGEIST
2019-05-11 Poltergeist.2015.SCREENER.1080p.x264-POLTERGEIST
2019-05-11 Poltergeist.2015.1080p.x264-POLTERGEIST
2019-05-11 Poltergeist.2015.SCREENER.1080p.x264-POLTERGEIST
2019-05-11 poltergeist.2015.1080p.x264-poltergeist Мое.mkv
2019-05-11 Poltergeist.2015.SCREENER.1080p.x264-POLTERGEIST
2019-05-11 Poltergeist.2015.SCREENER.1080p.x264-POLTERGEIST
2019-05-11 Poltergeist.2015.SCREENER.1080p.x264-POLTERGEIST
2019-05-11 Poltergeist.2015 BosSubs.SCREENER.1080p.x264-POLTERGEIS
2019-05-11 poltergeist.2015.720p.x264-poltergeist.mp4
2019-05-11 Poltergeist.2015.Screener.XViD-ETRG
2019-05-11 Poltergeist.2015.HDTVRip.x264.720p.NNM-CLUB.mkv
2019-05-11 Poltergeist 2015
2019-05-11 Poltergeist.2015.D.HDTVRip.700MB...avi
2019-05-11 Poltergeist.2015.D.HDTVRip...avi
2019-05-11 Poltergeist 2015 Screener 720p Rulez[ahashare]
2019-05-11 鬼驱人.poltergeist.2015.HD720P.X264.AAC.English.CHS.xiepp.
2019-05-11 鬼驱人.BD.720p.中英双字幕
2019-05-11 Poltergeist (2015) BDRip 720p | Extended Cut
2019-05-11 Poltergeist 2015 SCREENER 1080p x264-POLTERGEIST[EtHD]
2019-05-11 Poltergeist 2015 1080p VOSTFR-VOST x264-CpB mkv
2019-05-11 Poltergeist (2015) [NTSC] [DVD9] [Lektor i Napisy PL][E
2019-05-11 Poltergeist 2015 720p Eng-Spa-Hindi EXTENDED MULTi BluR
2019-05-11 Poltergeist 2015 Extended 1080p BluRay HEVC 10bit FLAC
2019-05-11 Poltergeist (2015) EXTENDED CUT BluRay BDRip 1080p x264
2019-05-11 Poltergeist 2015 Extended BluRay 1080p AVC DTS-HD MA 7.
2019-05-11 Poltergeist 2015 EXTENDED 1080p BluRay x264 DTS-iFT
2019-05-11 Poltergeist 2015 Bluray 1080p DTS x264-HDh[9 69 GB]
2019-05-11 Duch 3D - Poltergeist *2015* (Theatrical Cut) [1080p 3D
2019-05-11 Poltergeist 3D (2015) HOU
2019-05-11 Poltergeist 2015 3D HOU 1080p BDRip 48FPS Leon345
2019-05-11 Poltergeist (2015) EXTENDED CUT BluRay Remax 1080p AVC-
2019-05-11 Poltergeist 2015 EXTENDED BluRay 1080p DTS-HD MA 7 1-LT
2019-05-10 Poltergeist.2015.720p.BRRip.x264-YIFY
2019-05-10 Poltergeist.2015.1080p.BRRip.x264-YIFY
2019-05-10 Poltergeist.2015.3D.1080p.BRRip.x264-YIFY
2019-05-10 Poltergeist 2015 SCREENER 1080p x264-POLTERGEIST
2019-05-10 Poltergeist.2015.SCREENER.x264-FGT
2019-05-10 Poltergeist.2015.720p.SCREENER.XviD.AC3-FGT
2019-05-10 Poltergeist.2015.SCREENER.XviD.AC3-FGT
2019-05-10 Poltergeist.2015.SCREENER.XviD.MP3-FGT
2019-05-10 Poltergeist.2015.EXTENDED.WEB-DL.XviD.AC3-RARBG
2019-05-10 Poltergeist.2015.EXTENDED.WEB-DL.XviD.MP3-RARBG
2019-05-10 Poltergeist.2015.EXTENDED.WEB-DL.x264-RARBG
2019-05-10 Poltergeist 2015 EXTENDED 720p WEB-DL XviD AC3-RARBG
2019-05-10 Poltergeist.2015.EXTENDED.BDRip.x264-GECKOS
2019-05-10 Poltergeist.2015.EXTENDED.BRRip.XviD.MP3-RARBG
2019-05-10 Poltergeist.2015.EXTENDED.BRRip.XviD.AC3-RARBG
2019-05-10 Poltergeist 2015 EXTENDED 720p BRRip XviD AC3-RARBG
2019-05-10 Poltergeist 2015 EXTENDED 720p BluRay H264 AAC-RARBG
2019-05-10 Poltergeist 2015 EXTENDED 1080p BluRay x264 DTS-WiKi
2019-05-10 Poltergeist 2015 720p BluRay x264 DTS-WiKi
2019-05-10 Poltergeist 2015 EXTENDED 1080p WEB-DL DD5.1 H264-RARBG
2019-05-10 Poltergeist 2015 EXTENDED 720p WEB-DL DD5.1 H264-RARBG
2019-05-10 鬼驱人.加长版.poltergeist.Extended.2015.BD720P.X264.AAC.Engli
2019-05-10 鬼驱人.加长版.poltergeist.Extended.2015.BD1080P.X264.AAC.Engl
2019-05-10 鬼驱人.poltergeist.2015.HD720P.X264.AAC.English.CHS.xiepp.
2019-05-10 鬼驱人.poltergeist.2015.HD1080P.X264.AAC.English.CHS.xiepp
2019-05-10 Poltergeist 2015.1080p 3D BluRay AVC DTS-HD MA 7.1-RARB
2019-05-10 Poltergeist 2015 EXTENDED 1080p BluRay AVC DTS-HD MA 7.
2019-05-10 Poltergeist 2015 EXTENDED 1080p BluRay REMUX AVC DTS-HD
2019-05-10 2015年 鬼驱人[16.03GB左右3D]:Poltergeist.2015.1080p.3D.BluRay
2019-05-10 2015年 鬼驱人[16.33GB上下3D]:Poltergeist.2015.1080p.3D.BluRay
2019-05-10 Poltergeist 2015 EXTENDED 1080p BluRay x264 DTS-HD MA 7
2019-05-10 Poltergeist 2015 EXTENDED 1080p BluRay x264-ALLiANCE
2019-05-10 Poltergeist 2015 EXTENDED 720p BluRay x264-GECKOS

影片评论